GFSSW_prec_cthk_000.txt.gz
RH
10 9 9 8 8 7 7 6 6 6 5 5 5 5 5 5 5 5 6 7 7 6 6 8 11 12 14 17 19 34 53 73 62 60 39 41 34 37 48 48 59 58 69 67 58
10 10 9 8 8 7 7 6 6 6 6 5 5 5 5 5 5 5 7 7 7 6 6 9 11 14 13 16 18 36 61 44 44 43 34 34 35 39 48 58 44 37 64 63 52
10 10 9 8 8 7 7 7 6 6 6 6 6 5 5 5 7 11 7 7 6 6 7 10 13 12 12 15 20 38 57 41 50 36 26 27 36 41 47 54 54 40 46 55 54
11 10 9 9 8 8 7 7 7 6 6 6 6 6 6 6 14 12 7 6 6 6 11 13 12 11 11 15 23 29 33 39 32 31 28 31 36 34 38 47 47 44 44 47 53
11 10 10 9 8 8 8 7 7 7 7 6 6 6 7 9 11 6 7 6 6 6 9 11 10 12 12 16 22 24 28 30 30 28 30 25 26 37 46 46 44 47 44 49 45
10 10 9 9 8 8 8 8 8 7 7 7 6 7 8 14 11 7 7 8 7 8 10 9 10 10 14 19 22 25 30 27 27 24 27 35 29 29 40 44 51 51 46 46 48
10 10 10 9 9 8 8 8 8 9 8 8 7 7 9 13 12 8 8 9 9 9 9 8 10 12 13 17 20 18 20 25 25 29 36 22 28 30 21 31 47 45 47 49 46
11 10 10 9 9 9 9 8 9 9 9 9 8 8 10 12 10 10 9 11 13 11 10 11 10 13 15 16 19 22 22 25 30 33 31 26 32 32 29 36 44 46 47 44 43
11 11 11 11 10 10 10 10 9 10 10 10 11 13 14 13 10 10 12 13 12 11 10 11 14 14 16 17 18 19 26 31 37 37 28 24 34 40 43 49 47 45 50 45 45
14 15 15 14 13 12 12 10 10 12 12 10 10 15 14 13 12 10 12 14 13 11 10 10 12 15 16 20 25 28 34 46 54 49 31 27 28 41 40 45 41 57 45 41 47
16 16 16 15 15 14 14 17 19 23 18 14 19 12 16 18 15 13 11 13 13 12 12 12 13 14 15 20 19 22 27 30 44 36 24 20 20 34 36 52 33 52 59 45 38
18 17 16 16 15 15 15 20 19 17 15 14 13 13 12 15 16 14 12 12 14 14 13 13 12 13 15 16 19 22 18 20 22 26 26 21 20 29 36 40 39 50 54 50 42
19 19 18 17 16 17 18 19 16 17 17 14 13 13 12 12 14 17 14 13 14 14 16 14 14 13 11 13 14 15 19 21 24 23 31 26 29 30 42 35 35 40 50 48 46
17 18 19 18 16 19 18 21 16 18 17 12 13 13 12 13 11 12 15 14 16 17 16 17 15 14 12 12 12 13 20 19 20 20 26 27 29 29 36 37 41 59 39 31 42
13 13 13 15 15 17 21 19 15 17 19 14 14 12 12 11 12 11 16 16 16 18 17 17 17 14 12 12 11 11 20 23 20 18 19 20 24 38 39 46 42 40 61 36 42
12 11 11 12 12 12 15 15 16 18 17 15 15 13 13 11 11 12 15 18 18 20 19 17 18 15 13 14 13 12 15 19 16 15 19 21 25 33 39 44 36 36 45 45 50
14 12 11 11 14 15 13 14 18 19 13 13 15 13 12 12 11 12 12 17 18 20 19 21 17 16 15 13 16 14 15 21 24 26 26 26 24 31 39 40 28 43 35 50 45
16 14 12 11 14 16 14 15 20 16 13 14 15 15 14 13 15 13 14 18 18 20 22 26 25 18 18 16 15 17 18 22 28 31 38 43 44 40 38 34 30 29 35 51 47
17 17 18 12 11 15 17 18 16 15 19 17 15 14 14 12 14 17 17 18 21 19 25 26 26 25 26 24 17 18 19 20 23 24 29 42 37 36 44 39 31 27 38 60 52
18 21 24 24 20 17 18 17 14 16 20 17 15 13 12 13 16 18 22 21 22 23 21 25 26 25 23 27 22 14 22 25 21 28 29 29 37 42 49 49 39 37 41 56 53
15 25 25 30 25 24 21 16 14 15 17 15 16 15 14 13 18 19 19 24 23 22 25 26 24 23 22 24 21 21 16 24 26 24 26 29 46 47 50 45 45 47 46 56 56
17 20 27 28 27 26 25 21 17 16 15 14 12 14 15 15 21 24 21 19 24 23 26 28 24 22 27 24 21 23 24 23 32 32 28 32 50 43 54 48 42 61 46 56 56
21 23 29 27 25 23 26 24 20 18 17 16 12 9 14 17 19 22 22 22 23 25 25 27 25 28 29 28 28 23 22 25 23 31 35 35 35 52 52 68 71 48 52 60 59
24 22 25 30 22 20 27 27 24 21 18 17 13 11 10 14 17 21 23 24 24 27 28 27 29 26 29 31 35 32 28 21 26 28 25 28 47 43 40 52 74 71 60 60 63
28 27 41 38 26 21 22 31 34 27 24 18 16 13 13 14 14 16 23 28 28 25 24 25 33 36 24 37 35 37 34 27 22 26 27 27 37 47 43 42 44 71 74 66 62
42 40 46 43 48 41 30 22 35 37 28 23 16 18 16 20 18 22 22 30 31 34 34 35 35 36 33 38 34 35 32 28 23 22 25 25 49 53 50 46 43 76 72 61 57
37 35 38 33 41 40 40 38 29 34 37 26 32 21 19 22 20 21 23 31 30 37 47 35 38 40 40 33 34 35 30 31 27 26 28 38 52 57 57 57 62 74 66 61 57

GFSSW_prec_cthk_003.txt.gz
RH
9 9 9 8 8 7 7 6 5 5 5 5 5 5 5 5 5 5 5 6 6 6 5 6 6 9 13 18 30 38 50 55 50 46 49 47 46 48 48 46 49 43 38 46 48
10 10 9 9 8 8 7 6 6 5 5 5 5 5 5 5 5 5 5 5 6 6 6 7 11 11 14 18 24 36 44 44 39 38 38 39 44 49 46 44 45 42 46 50 45
11 10 9 9 8 8 7 7 6 6 5 5 5 5 5 5 7 9 6 6 6 6 6 8 11 12 13 16 21 33 41 35 44 41 33 35 41 41 50 42 39 37 44 45 42
11 10 10 9 8 8 7 7 7 6 6 6 5 6 6 6 14 9 6 6 6 5 7 10 12 11 10 13 20 28 30 36 42 48 38 35 30 39 38 45 40 29 38 39 38
11 10 10 9 8 8 7 7 7 7 6 6 6 6 6 7 9 8 5 6 5 5 8 10 11 10 10 14 16 24 29 33 33 35 29 37 32 31 39 39 41 35 34 37 39
11 10 9 9 8 8 7 7 7 7 7 7 6 6 7 12 11 9 6 6 6 6 7 8 8 9 10 12 14 19 23 29 32 29 35 32 34 28 34 36 34 42 38 39 39
11 10 9 9 8 8 7 7 7 7 7 7 7 6 6 9 11 9 7 7 7 7 8 8 8 9 10 12 16 21 23 22 28 36 35 40 32 26 31 32 33 44 44 48 45
10 10 9 9 9 8 8 8 8 8 8 9 8 8 7 11 10 8 7 8 9 9 9 9 8 8 10 11 14 18 20 26 30 31 40 39 33 28 33 34 41 42 34 42 41
11 10 10 10 10 9 8 8 8 8 9 10 11 15 11 13 11 9 9 11 12 12 11 9 10 11 12 14 15 15 33 42 41 30 34 35 34 34 37 36 35 74 46 27 33
12 11 11 11 11 11 11 10 11 12 12 11 11 13 13 13 13 12 10 12 13 11 10 10 11 12 13 16 19 28 42 44 41 33 29 30 28 42 40 42 48 60 62 78 44
12 12 12 13 14 13 12 15 17 21 17 14 15 11 15 16 15 14 10 12 12 11 12 12 13 13 13 14 16 19 24 35 35 34 37 35 28 31 34 44 48 51 47 69 54
15 15 15 15 15 15 15 18 18 17 15 14 14 14 14 16 15 14 13 13 12 12 12 13 13 12 12 13 16 15 17 20 20 29 35 36 32 31 29 33 37 44 48 48 73
18 18 17 17 16 16 17 18 18 16 16 13 12 11 13 13 15 16 14 13 13 14 14 14 12 12 13 11 12 13 13 14 18 22 30 30 35 37 36 36 38 44 45 61 70
16 16 16 16 16 17 20 21 19 17 20 15 13 12 12 12 12 16 15 15 13 15 16 16 13 14 15 13 12 11 11 13 18 21 22 24 30 37 36 34 36 38 34 45 55
15 15 15 14 16 18 21 20 17 18 26 14 14 13 12 12 11 12 14 15 14 16 18 16 16 16 16 14 12 11 11 14 18 21 19 14 20 31 34 37 40 41 38 31 41
14 13 12 13 12 15 17 15 16 21 25 15 13 13 13 12 12 12 13 16 16 17 18 17 17 18 16 12 12 12 12 13 14 15 19 18 23 38 37 37 41 40 33 38 41
14 13 11 11 12 14 13 12 18 24 14 12 15 15 14 13 12 12 14 17 19 22 20 18 18 19 17 15 14 14 14 20 23 25 33 33 38 42 35 38 40 45 44 45 37
19 16 14 12 14 16 15 16 22 15 12 15 16 18 15 14 13 12 13 17 18 20 22 24 22 19 20 19 17 16 17 24 26 35 39 39 42 51 42 40 42 52 47 36 39
21 19 16 14 13 18 18 22 17 12 16 17 17 16 19 16 15 16 15 15 14 18 22 24 24 29 31 27 23 20 21 19 22 27 34 39 38 48 55 50 47 50 48 38 39
16 18 17 17 16 18 21 20 15 12 16 18 18 17 16 17 15 16 20 18 19 18 22 20 28 28 28 25 25 23 19 23 26 27 30 39 49 60 59 47 41 55 60 47 41
13 23 23 23 21 18 23 18 13 13 16 18 17 17 16 16 15 15 17 19 24 23 23 22 28 26 28 27 27 27 22 20 23 31 32 43 54 52 51 56 57 53 65 54 47
13 23 23 25 25 23 22 20 17 15 18 18 16 16 15 15 15 18 21 19 21 25 26 24 28 29 25 24 25 23 23 23 27 30 38 40 56 55 54 56 48 50 56 66 58
15 28 31 29 29 25 23 23 23 20 18 18 18 15 14 15 18 19 24 21 22 22 26 26 31 32 24 27 29 26 26 23 28 28 33 42 53 49 46 47 41 38 57 76 65
20 27 26 34 29 27 26 26 27 26 20 19 18 17 14 13 16 19 22 23 25 28 26 27 34 29 25 34 38 36 32 26 26 33 27 34 48 49 44 44 44 51 59 82 69
28 42 43 45 37 38 32 24 26 31 33 23 21 19 15 14 14 18 18 24 27 27 28 29 33 33 27 33 34 39 35 32 31 27 29 25 33 41 51 53 53 65 69 95 78
34 36 39 45 42 41 37 33 28 27 36 33 25 20 14 17 16 16 16 22 30 32 28 29 33 31 29 36 41 44 41 38 35 33 25 29 40 42 44 57 59 65 63 82 74
31 32 33 36 41 40 39 34 33 30 31 38 37 27 17 16 20 19 18 21 28 37 38 37 36 36 34 35 43 44 42 40 40 32 32 31 35 39 40 43 48 51 58 67 60

GFSSW_prec_cthk_006.txt.gz
RH
9 9 9 8 8 7 6 5 5 5 4 4 4 5 5 4 4 5 5 5 6 6 6 6 5 10 15 23 29 46 47 49 49 54 58 54 51 46 47 46 50 43 36 35 38
10 10 9 9 8 8 7 6 6 5 5 5 4 4 4 4 4 5 6 5 6 6 6 7 9 10 16 21 35 40 44 49 52 50 45 47 44 42 44 43 49 44 39 38 39
11 10 10 9 9 8 7 7 6 6 5 5 5 4 4 4 7 9 6 6 6 6 6 9 10 11 16 19 32 36 38 42 44 49 38 39 36 32 39 43 48 44 44 41 38
11 10 10 9 9 8 7 7 7 6 6 5 5 5 5 5 12 9 5 6 5 6 7 9 10 11 12 17 25 29 24 33 44 42 39 42 36 37 32 33 34 38 42 42 38
11 10 10 9 8 8 7 7 7 7 6 6 5 5 5 6 6 9 6 5 5 5 7 10 10 10 11 16 17 17 20 26 30 39 44 35 38 43 37 35 38 40 36 40 39
11 10 10 9 9 8 7 7 7 6 6 6 6 5 6 8 9 8 7 6 5 6 8 9 9 10 11 13 16 18 20 26 28 32 34 36 39 40 40 38 38 43 41 42 41
11 10 10 9 9 8 7 7 6 6 6 7 7 6 6 6 10 9 7 6 6 6 7 8 8 9 10 12 15 18 19 23 23 24 27 31 41 35 41 40 43 57 61 61 43
11 10 10 10 9 8 8 7 7 7 7 7 7 7 6 7 9 8 7 7 7 8 8 8 8 8 9 11 14 16 20 22 24 23 24 26 34 35 42 44 51 56 55 53 70
11 11 10 10 9 9 8 7 7 7 7 8 9 11 9 10 9 9 9 8 9 10 10 9 9 10 10 13 14 14 24 29 28 27 28 28 32 40 45 51 43 44 43 57 74
11 11 10 10 10 9 9 10 11 10 10 11 10 12 10 12 11 12 10 10 11 11 10 9 10 11 13 16 19 23 31 29 26 22 27 28 36 35 42 43 41 45 47 47 51
12 12 11 10 11 10 12 13 15 17 15 13 12 10 15 15 15 14 12 11 11 12 11 11 12 12 11 12 15 19 23 25 22 23 25 30 35 34 39 45 45 46 48 48 53
12 11 11 11 11 11 14 16 15 16 15 14 13 12 14 15 15 14 13 13 13 12 11 12 13 12 12 13 15 15 14 17 18 20 25 29 38 42 46 48 45 44 45 47 47
14 13 13 12 13 14 17 18 18 17 15 12 11 12 14 15 14 15 14 13 14 14 13 13 11 12 13 12 13 13 13 13 15 18 23 27 31 42 44 49 46 45 48 51 44
16 15 14 14 15 16 19 18 18 17 20 16 14 12 12 15 12 15 15 16 15 14 14 15 12 13 13 14 13 12 11 12 13 18 21 23 27 35 39 40 45 42 48 50 41
16 15 15 15 16 18 20 19 19 17 17 16 15 14 12 12 13 13 14 17 15 15 15 15 14 15 16 15 14 12 12 14 15 18 18 20 24 22 32 35 33 41 49 45 43
16 16 15 15 14 16 19 18 18 21 19 16 14 14 14 13 14 13 14 16 16 16 16 15 15 17 16 16 16 12 12 15 18 18 19 22 22 22 33 33 36 40 45 44 44
14 13 12 13 13 14 15 15 18 25 16 15 16 15 14 14 14 13 15 16 17 19 19 16 16 17 17 16 15 14 16 20 19 22 21 30 36 38 41 41 38 41 44 36 36
14 14 13 12 12 15 13 15 20 15 14 17 17 16 16 15 14 14 15 17 16 17 20 23 22 15 16 21 21 18 17 22 22 26 29 30 36 39 41 46 42 42 41 41 50
19 19 17 15 14 17 17 20 17 16 15 17 18 17 17 17 17 16 16 17 16 19 22 21 20 19 22 24 26 26 23 21 22 24 26 30 36 40 37 40 47 46 46 52 59
20 20 19 21 18 22 23 22 17 13 17 16 19 18 19 18 18 18 18 15 16 18 21 20 20 23 25 26 24 26 26 23 26 24 27 33 42 48 52 50 49 56 58 60 62
16 23 24 19 20 25 27 23 16 12 14 18 19 19 18 18 17 17 16 15 15 17 22 23 23 19 27 29 27 28 26 28 25 28 29 41 47 49 48 54 52 61 70 73 76
15 26 23 21 19 23 26 21 17 13 12 16 18 18 18 17 17 16 16 18 20 19 24 23 26 24 26 29 29 28 28 29 29 25 32 41 49 45 47 48 48 53 57 59 60
15 26 26 27 26 24 21 21 19 17 13 17 18 18 17 17 16 16 16 20 23 27 25 25 30 30 26 29 28 29 26 27 31 29 27 33 43 42 43 49 50 57 61 61 51
24 35 32 31 30 31 30 28 26 25 22 20 20 19 17 17 17 16 16 23 24 25 26 27 31 28 25 26 31 34 31 27 31 32 29 30 40 45 47 47 49 51 54 57 52
28 39 40 43 36 39 36 32 28 25 26 27 25 21 18 17 16 16 17 23 25 26 26 30 33 32 29 30 31 38 38 37 39 33 32 31 37 37 40 44 51 48 49 54 56
30 38 39 40 39 37 34 33 28 26 29 30 31 26 20 18 16 16 18 25 28 30 30 31 30 33 33 30 32 39 37 40 37 36 41 40 39 35 43 48 48 48 47 43 54
26 28 37 38 38 38 38 40 37 33 31 37 38 32 30 23 17 15 17 24 28 31 34 38 33 36 34 32 33 38 41 45 48 49 47 42 35 37 44 48 49 49 47 45 55

GFSSW_prec_cthk_009.txt.gz
RH
9 9 9 8 8 7 6 6 6 5 5 5 5 5 5 5 5 5 5 5 5 6 5 6 5 10 18 26 40 45 43 44 49 49 44 43 46 46 47 48 49 48 46 40 40
10 10 9 9 8 8 7 6 6 5 5 5 5 5 5 5 5 6 6 5 6 6 5 6 7 10 16 31 38 42 41 40 39 38 41 43 41 42 46 46 46 44 41 40 36
10 9 9 9 8 8 7 7 6 6 5 5 5 5 5 5 8 9 6 6 6 6 6 11 10 12 17 28 37 36 38 34 35 36 39 46 46 43 41 43 41 44 43 37 36
10 10 9 9 8 8 7 7 6 6 6 5 5 5 5 5 14 9 6 6 6 6 8 10 10 12 16 24 32 34 29 26 33 32 30 37 40 37 37 38 40 41 40 38 34
11 10 10 9 9 8 7 7 6 6 6 6 6 5 5 6 7 10 7 6 6 6 9 10 10 10 15 16 22 27 23 21 24 27 31 35 33 36 39 41 43 41 47 47 46
11 10 10 9 9 8 7 7 6 6 6 6 6 6 6 7 9 9 9 7 6 6 8 10 11 10 13 14 16 18 18 19 21 23 24 29 36 39 41 37 42 46 53 57 53
11 11 10 10 9 8 7 7 6 6 6 6 6 6 6 6 9 10 8 7 6 6 8 9 10 10 11 13 15 16 17 17 20 26 28 28 35 39 38 40 44 44 54 54 53
11 11 10 10 9 8 8 7 6 6 6 6 6 7 6 6 8 10 9 7 7 6 9 10 10 9 9 13 14 16 17 22 26 33 32 32 35 37 38 39 45 42 50 54 53
12 11 10 10 10 9 8 7 7 7 6 7 7 8 8 8 8 9 10 8 9 9 10 10 9 9 10 11 14 14 16 20 26 27 30 32 35 38 40 39 44 46 51 53 50
11 11 10 10 10 9 8 9 10 10 9 9 9 9 9 10 11 11 11 10 11 11 10 9 10 12 13 15 14 17 23 20 23 22 24 32 39 44 44 42 46 51 52 48 50
11 11 10 10 10 9 9 10 11 11 10 10 11 9 12 13 14 13 13 11 11 11 12 11 12 13 11 12 13 19 20 19 18 18 22 28 36 46 46 44 49 53 48 45 49
11 10 10 10 12 10 12 12 14 14 13 12 11 11 11 14 16 16 15 13 12 12 12 12 13 12 13 13 15 16 18 18 14 16 18 23 36 43 44 42 44 48 46 47 50
14 13 10 10 13 12 13 13 14 14 14 12 12 12 12 13 15 15 14 14 14 14 13 13 11 12 14 14 14 14 14 14 14 14 21 23 30 37 40 44 39 44 43 46 48
18 16 15 11 12 12 14 14 16 15 17 14 13 12 11 14 15 15 15 15 15 15 15 14 12 13 14 15 15 15 13 12 12 15 17 21 24 30 33 37 39 41 41 43 43
18 16 15 13 13 14 16 17 19 17 17 14 15 14 13 14 14 14 15 16 17 16 16 15 15 16 16 15 16 15 15 13 13 17 17 18 20 22 28 27 27 33 36 42 38
18 16 16 15 14 15 18 19 18 17 17 15 16 16 15 15 15 15 16 17 17 17 16 15 14 15 15 15 17 16 14 15 17 19 20 18 22 28 38 36 37 42 41 39 36
17 14 14 14 14 15 17 19 19 21 16 18 17 16 15 14 15 15 18 18 18 18 18 16 14 14 15 17 17 17 17 19 18 22 20 22 26 30 35 37 37 41 43 39 40
17 16 14 13 14 17 16 18 20 15 17 17 17 16 16 16 15 16 18 19 17 17 19 20 18 15 13 16 22 20 19 22 20 24 21 24 28 33 34 35 37 44 45 45 48
14 15 15 14 14 16 16 17 14 15 16 16 17 17 17 17 16 17 18 17 15 18 20 23 19 15 16 20 23 24 23 23 25 26 27 27 31 33 36 42 43 49 53 63 63
16 15 14 15 15 18 20 19 15 16 16 15 18 18 17 17 17 18 17 15 16 17 19 21 20 16 17 21 24 25 27 28 27 26 26 29 40 41 42 46 50 51 56 63 50
19 24 23 19 18 23 26 24 19 17 15 18 19 20 18 17 17 17 17 16 17 18 19 20 21 17 21 24 27 27 28 29 29 30 32 34 37 38 45 43 49 49 55 53 46
18 29 27 20 22 29 29 26 22 19 15 13 17 21 21 19 17 17 16 17 18 17 20 20 24 25 25 30 30 26 28 29 32 29 37 39 34 35 38 42 42 51 57 56 54
18 28 28 22 25 24 22 24 23 20 17 16 15 17 20 21 20 18 17 16 18 19 18 21 23 24 23 27 32 30 29 28 30 30 37 37 29 37 41 45 47 51 54 56 65
24 31 30 29 32 33 32 27 27 26 22 20 17 17 19 20 21 19 18 17 18 22 24 24 26 23 22 25 31 35 36 34 33 34 33 31 27 41 42 45 50 52 49 52 59
31 36 35 36 35 36 33 32 29 29 28 26 24 22 23 20 19 20 18 17 18 26 29 28 29 28 26 25 30 33 34 38 37 35 33 33 34 36 39 41 41 43 50 55 57
27 39 36 35 35 33 35 36 35 34 31 31 34 31 29 24 21 19 19 18 22 27 32 35 30 31 31 33 32 32 31 36 38 40 34 36 38 37 38 36 40 45 48 54 52
23 25 36 38 38 36 38 37 38 35 30 30 35 36 32 31 30 21 17 17 21 28 35 39 36 34 34 38 32 30 29 37 41 41 40 39 38 42 41 40 45 46 49 49 50

GFSSW_prec_cthk_012.txt.gz
RH
10 9 9 9 8 7 7 6 6 5 5 5 6 6 6 6 5 5 5 5 5 6 5 5 5 9 22 29 35 39 46 50 46 46 40 38 40 43 42 40 40 39 39 38 35
10 9 9 9 8 8 7 6 6 6 5 5 5 5 5 6 6 6 6 5 6 5 5 5 6 10 20 29 36 39 42 38 34 33 35 36 38 42 41 42 42 44 44 45 39
10 9 9 9 8 8 7 7 6 6 5 5 5 5 5 5 8 9 7 6 7 6 6 7 9 11 20 29 34 35 33 32 30 31 30 33 32 34 41 41 43 44 44 44 44
10 9 9 9 9 8 7 7 6 6 6 5 5 5 5 5 14 8 6 6 6 6 8 9 9 12 23 25 27 30 28 26 27 25 27 31 29 31 34 36 41 42 40 46 50
10 10 10 9 9 8 8 7 6 6 6 6 6 5 5 6 8 11 8 7 6 6 9 10 9 12 15 20 23 26 25 22 22 24 24 29 31 34 34 34 38 38 40 46 49
10 10 10 10 9 8 8 7 7 6 6 6 6 6 6 6 10 10 10 7 7 6 9 10 11 11 12 17 22 22 21 22 18 22 26 31 31 33 35 33 33 40 43 47 48
11 10 10 10 9 9 8 8 7 6 6 6 6 6 6 6 9 11 9 8 7 7 9 11 11 10 10 12 14 18 19 19 21 25 30 31 33 31 37 35 37 43 45 50 49
11 11 10 10 9 9 9 8 7 7 6 6 6 6 6 6 8 10 9 8 7 7 10 10 10 9 9 12 14 16 16 22 24 28 30 32 32 34 37 37 44 47 48 49 49
11 11 10 10 9 9 9 8 8 8 7 6 6 7 7 8 7 10 10 8 7 8 10 10 9 10 10 11 14 16 15 18 24 26 28 29 30 33 39 45 47 50 50 48 55
10 11 11 10 9 9 9 9 9 9 9 8 8 8 8 10 11 9 10 10 10 10 11 10 11 12 13 13 10 14 16 19 25 24 23 23 25 34 39 43 45 49 49 51 55
11 10 10 10 10 9 9 9 9 9 9 8 9 8 11 12 14 13 12 12 12 12 12 11 12 13 12 13 13 17 18 20 21 20 20 21 25 32 35 40 42 50 50 50 52
12 11 9 10 10 10 11 11 11 12 11 8 9 10 10 13 15 16 16 14 13 13 12 13 13 12 12 12 12 13 17 18 17 17 17 21 25 31 36 37 40 48 47 52 51
12 10 10 10 10 10 12 12 12 12 12 10 11 10 10 12 15 17 17 16 16 15 13 13 11 12 13 14 15 15 15 15 13 14 17 20 23 30 29 32 35 39 44 47 50
13 12 11 10 10 10 13 15 13 13 14 12 12 12 11 13 14 16 16 16 16 16 16 15 13 13 14 15 16 16 16 16 15 14 14 18 21 20 24 26 29 33 39 44 47
17 15 14 13 12 12 14 15 15 14 14 12 14 13 12 13 15 16 16 16 17 17 16 14 16 15 16 16 16 17 17 16 15 16 17 17 19 17 26 30 30 36 45 50 46
18 19 18 16 16 15 15 15 16 12 14 15 16 15 15 14 15 16 18 17 18 18 17 17 16 15 15 15 16 16 16 16 18 18 19 17 20 22 22 30 33 36 44 49 46
18 18 18 18 15 15 16 18 15 15 14 16 17 16 16 15 16 18 18 18 20 20 19 17 15 14 14 15 16 17 20 21 19 20 19 22 25 22 22 27 32 35 40 47 48
16 17 17 17 15 16 18 18 15 15 17 18 17 17 17 16 15 17 19 20 19 19 21 19 18 15 16 15 18 20 22 25 21 23 21 23 24 22 25 28 31 34 39 45 46
13 14 16 16 15 16 19 18 14 16 18 17 18 18 18 18 16 16 19 20 18 18 20 24 22 16 17 18 18 22 23 23 28 27 25 25 25 25 28 33 33 39 42 46 48
16 14 16 16 16 17 18 18 16 18 17 17 17 18 18 18 17 18 19 17 17 17 18 19 21 17 17 19 20 22 27 28 30 27 26 28 33 34 32 37 41 47 42 44 48
20 23 21 15 16 21 22 21 18 17 15 16 17 18 18 17 17 17 17 17 18 18 18 19 20 18 16 20 22 27 26 29 30 31 31 31 32 30 30 34 37 40 39 43 49
19 29 27 20 21 25 25 21 19 18 16 14 15 18 19 19 17 17 16 18 18 18 22 22 23 23 19 21 21 28 30 30 33 30 37 34 30 34 30 35 40 44 44 49 53
23 26 25 25 26 25 25 24 22 21 19 17 16 16 20 22 21 18 17 18 17 18 20 23 25 26 24 22 23 28 32 30 31 33 38 35 30 32 33 36 39 46 49 54 55
26 29 27 26 32 32 33 30 29 30 26 23 21 18 19 21 22 21 19 19 18 19 23 23 26 24 24 24 29 33 35 34 34 35 34 31 26 29 31 37 42 45 52 56 59
27 34 33 31 30 34 35 36 35 35 34 30 28 28 28 23 20 21 21 21 20 22 26 28 28 26 23 23 27 33 36 35 35 37 39 36 33 32 35 36 41 45 52 58 61
25 34 32 34 33 32 36 38 36 35 33 32 34 35 32 26 23 22 20 22 22 25 27 33 31 32 28 27 28 31 34 35 36 38 38 40 37 33 36 36 39 46 52 55 60
20 23 32 35 34 33 37 38 37 35 33 33 33 35 34 31 33 30 26 21 21 24 27 33 35 35 32 34 31 30 32 35 36 35 39 41 37 38 44 41 43 46 54 57 60

GFSSW_prec_cthk_015.txt.gz
RH
9 9 9 8 8 7 6 6 6 6 6 6 6 5 5 5 5 5 5 5 5 5 5 5 6 8 21 32 35 35 38 42 40 36 30 31 34 36 35 40 42 41 40 41 41
9 9 9 9 8 8 7 6 6 5 5 5 5 5 5 5 5 6 6 5 5 5 5 5 6 10 25 30 33 37 34 33 30 30 27 28 30 35 37 38 41 40 40 43 45
10 9 9 9 8 8 7 7 6 5 5 5 5 5 5 5 8 7 7 5 6 5 5 6 8 11 23 30 35 35 31 30 25 27 26 28 29 30 32 36 37 40 45 47 48
10 9 9 9 9 8 8 7 6 6 5 5 5 5 5 7 11 7 6 6 6 6 6 7 8 11 20 27 31 33 26 25 23 23 25 28 31 33 34 31 32 37 40 43 50
10 10 9 9 9 9 8 8 7 6 6 5 5 5 5 5 8 9 6 6 6 6 7 8 8 12 20 24 25 28 26 24 24 23 24 27 29 31 35 34 34 37 42 43 46
10 10 10 10 9 9 9 8 7 7 6 6 6 5 6 6 8 9 8 6 6 6 8 9 10 12 17 20 20 21 23 23 24 23 25 28 29 29 34 35 38 40 43 46 47
11 10 10 10 10 9 9 8 7 7 6 6 6 6 6 6 10 9 8 7 6 6 9 10 10 11 11 15 18 19 22 21 22 22 27 27 29 30 30 35 40 45 44 45 54
12 11 10 10 9 9 9 8 8 7 7 6 6 6 6 6 8 11 9 7 6 7 9 10 10 9 10 11 13 18 17 16 19 24 21 25 24 26 31 35 42 47 47 49 57
12 11 10 10 10 9 9 8 8 8 9 7 6 7 7 7 7 9 9 8 7 7 10 10 9 10 10 10 9 12 12 15 19 20 19 23 22 27 31 36 44 47 43 47 56
11 10 10 10 9 9 9 8 8 8 9 9 7 8 7 9 9 10 9 9 7 8 9 10 10 11 11 10 7 9 13 14 19 18 18 21 20 24 30 37 40 46 46 50 53
12 11 9 10 9 9 9 9 9 9 9 8 8 8 9 12 12 11 10 10 10 11 11 11 10 11 10 12 12 14 13 15 18 17 18 19 20 24 28 35 40 43 51 51 52
14 12 10 9 10 10 10 10 10 11 10 8 8 8 10 13 15 15 13 13 12 12 12 12 11 11 11 12 13 12 13 16 17 16 17 17 16 22 27 30 35 38 45 47 53
14 13 12 10 9 10 11 11 11 11 11 9 9 9 10 12 14 17 16 16 15 14 12 12 11 11 12 14 14 14 14 15 15 14 16 17 15 19 23 26 28 32 38 42 49
14 13 12 10 10 10 13 12 12 12 11 10 10 11 10 11 13 16 19 18 17 16 15 14 13 12 13 14 15 17 16 15 15 14 13 15 14 17 20 24 25 27 34 42 46
15 12 11 11 10 10 13 13 13 13 13 11 12 13 12 13 14 16 18 17 17 17 16 14 15 15 15 15 16 17 16 16 16 14 15 15 16 14 17 19 28 29 36 42 46
15 14 13 12 12 11 13 14 14 13 13 13 14 14 14 14 16 18 20 19 18 18 18 17 16 16 15 16 16 16 16 17 17 17 15 16 16 15 17 20 28 28 32 38 45
15 15 15 14 15 15 15 16 14 14 12 14 15 15 15 14 16 17 19 20 19 21 20 18 15 15 15 15 16 16 18 20 18 17 16 21 21 16 17 23 29 29 30 38 41
16 16 14 15 16 16 19 19 18 13 13 15 15 16 17 16 16 19 20 21 20 19 20 18 16 16 16 14 14 16 18 20 22 19 18 22 20 19 24 24 29 31 34 41 40
14 14 15 16 16 18 22 18 16 16 17 16 17 18 18 18 17 18 20 19 18 19 20 20 19 18 17 17 16 18 21 21 24 26 23 21 22 22 29 30 30 34 38 41 41
20 13 14 14 15 18 22 21 16 17 17 17 18 19 19 18 18 18 19 18 18 19 19 19 19 17 17 17 18 19 22 25 25 30 28 24 26 24 29 30 29 33 36 42 48
21 27 19 13 14 20 22 21 17 18 17 17 19 18 19 18 18 18 18 18 18 18 19 19 19 18 18 17 20 20 22 26 27 30 27 26 25 26 30 29 27 36 38 45 49
23 27 27 20 18 22 22 20 18 17 16 16 17 18 18 18 17 17 18 18 18 18 20 20 21 21 19 19 20 21 25 28 28 35 31 30 25 25 28 28 31 38 46 51 54
22 24 25 26 25 23 22 21 20 19 18 16 16 16 18 18 19 17 17 18 18 19 21 22 24 22 21 21 22 23 24 29 32 33 36 33 27 25 26 27 31 39 47 51 54
25 24 22 26 32 31 29 24 22 25 22 20 18 18 18 19 19 20 19 18 18 19 24 23 26 25 20 22 25 28 28 30 32 33 33 30 29 25 28 31 36 41 44 53 55
26 29 29 24 30 33 34 37 32 31 29 27 24 26 25 21 20 22 21 21 19 22 24 24 26 26 23 23 25 28 33 33 37 36 34 33 30 29 30 31 36 40 44 55 58
23 31 30 32 28 29 34 37 36 35 34 35 34 34 31 27 22 22 26 25 23 24 25 28 29 29 26 25 24 26 27 34 34 34 36 36 33 32 33 35 40 42 43 54 64
16 20 29 33 31 32 34 37 37 37 35 35 35 37 37 34 32 29 28 24 25 28 26 30 31 32 29 30 27 29 27 30 32 33 33 36 34 35 37 37 43 44 47 54 60